Airfield :
LOGIN :

Register | Disclaimer

   EN    FR    IT 

 










Legend :    VFR   Marginal VFR   IFR   Intensive IFR   Very Intensive IFR
Visi :
Ceiling :
>= 8 km
>= 3000ft
5 to 8 km
1000 to 3000 ft
1500m to 5 km
500 to 1000 ft
800 to 1500m
200 to 500 ft
< 800m
< 200 ft
Symbols :   Thunderstorms  Fog  Heavy snow  Heavy precipitations  Wind > 20 kt
SIGMETs :     Misc.  Thunderstorms  Icing  Turbulence  Mountain Waves  Volcanic Ashes







- Airport Elevation : 459 ft


EPMI - Miroslawiec

METAR N/A
TAF COR TAF EPMI
Valid from the 24 at 09:00 until the 24 at 18:00 UTC


240800Z 2409/2418 30012KT 5000 RA BR BKN006
TEMPO 2409/2415 3000 DZRA BKN004
PROB40
TEMPO 2409/2415 4000 SHRA BKN005CB
BECMG 2415/2417 33008KT 6000 SCT007 BKN010
No reported NOTAMs for that airfield.
1 SIGMET reported for the Warszawa FIR (EPWW) :
 
Embedded thunderstorms
EPWW SIGMET 1 VALID 240910/241310 EPWA
EPWW WARSAW FIR EMBD TS OBS SE OF LINE N5000 E01800 - N5200 E01900 - N5300 E02400 TOP FL350 MOV E SLW INTSF=



MET'MAP, your aeronautical weather chart ! - Copyright ORBIFLY December 2007 - Disclaimer

ORBIFLY MET'MAP TEAM :

Programming & Development : Alexandra Zaïnal
Concept & Development : Baudouin d'Aumeries
Co-Development & Prog : Marc-Olivier Méhu
Technical & hardware support : Manuel Goepfert

Contact : metmap@orbifly.com




SOURCES & CREDITS :

   NOAA